ARIANE 5 R/B, 40876

Orbit data source: Space-Track

ARIANE 5 R/B, 40876 is space debris in HEO originally from a launch on Thu, 20 Aug 2015 UTC launched from the French Guiana (FRGUI). Debris objects in space refer to the collection of defunct objects orbiting the Earth. Examples of debris include non-operational satellites, rocket bodies, and fragments generated from explosions, collisions, or faulty payload assembly.

Loading next visibility...
ARIANE 5 R/B details
Identifier
40876, 2015-039C
Orbit
HEO
Last TLE update21 hours ago
Origin
Flag of FRArianespace (FR)
ManufacturerAirbus Safran
MissionSpacecraft
Bus & MotorESC-A, Unknown motor
Mass~5,000 kg wet, ~5,000 kg dry
Launch date (UTC)
2015-08-20 (9 years ago)
Launch vehicleUnknown
Launch site
French Guiana (FRGUI)
Object type
Payload
Rocket body
Debris
Shape & HBRCyl + 1 Nozzle, 7 m
Radar Cross Section41.627 m², Large (>1 m²)

Expand to show TLE details & history

TLE from 21 hours ago
0 ARIANE 5 R/B
1 40876U 15039C   24360.88353599  .00008373  00000-0  16115-2 0  9995
2 40876   5.5447  43.9566 7105837 264.8343  17.7875  2.51157446 81218
Epoch: 2024-12-25T21:12Z
Definitive object data (Epoch: 2024-12-25T21:12:17.509Z)
Latitude0.00001°
Longitude-9.17028°
Altitude5,691.34 km
Speed6.972 km/s
True Right ascension02h 55m 05s
True Declination0° 00' 00"
Sunlit
Object was in daylight at TLE epoch
Visualization TLE readout
Latitude5.08528°
Longitude56.66147°
Altitude27,929.66 km
Speed2.408 km/s
Apparent Right ascension07h 08m 54s
Apparent Declination-1° 31' 29"
Sunlit
Object is in daylight
Visualization observer readout
Local Sidereal Time18:01:36
Azimuth334.011° NNW
Elevation-48.674°
Doppler factor1
Orbital elements
Apogee altitude32,737.703 km
Perigee altitude239.932 km
Semi-major axis22,866.955 km
Eccentricity0.7105837
Inclination5.5447°
RAAN43.9566°
Arg. of periapsis264.8343°
True anomaly94.64384°
Mean anomaly17.7875°
Eccentric anomaly48.08285°
Mean motion0.62767 °/min
BSTAR0.0016115
Orbital period573.55 mins
Loading maneuver chart data...
Loading historical data...
Loading historical data...
Loading historical data...
Loading historical data...
Loading historical data...
Loading historical data...
Loading historical data...
Other satellites on launch #39 in the year 2015 (2015-08-20 UTC)

ARIANE 5 R/B Visibility forecast

Observer location: undefined°, undefined

Span
Click to sort rows by Start time (UTC) header in descending order
Start Az.
Max El. time (UTC)
Max El. Az.
Max El.
End time (UTC)
End Az.
502 mins2024-12-27 01:47:04.303Z154.244° SSE2024-12-27 08:15:04.303Z128.073° SE29.252°2024-12-27 10:09:04.303Z116.914° SE
|